Weather History for New Philadelphia, OH

Change the Weather History Date:

Wednesday, January 9, 2013

  Actual Average Record
Temperature  
Mean Temperature 34 °F 29 °F  
Max Temperature 48 °F 37 °F 61 °F (1965)
Min Temperature 20 °F 21 °F -10 °F (1968)
Degree Days  
Heating Degree Days 31 36  
Month to date heating degree days 339 324  
Since 1 July heating degree days 2439 2485  
Cooling Degree Days 0 0  
Month to date cooling degree days 0 0  
Year to date cooling degree days 0 0  
Moisture  
Dew Point 29 °F    
Average Humidity 69    
Maximum Humidity 88    
Minimum Humidity 49    
Precipitation  
Precipitation 0.04 in 0.08 in 1.10 in (1978)
Month to date precipitation 0.07 0.87  
Year to date precipitation 0.07 0.87  
Sea Level Pressure  
Sea Level Pressure 30.33 in    
Wind  
Wind Speed 5 mph (SSW)    
Max Wind Speed 14 mph    
Max Gust Speed 21 mph    
Visibility 10 miles    
Events Rain    
T = Trace of Precipitation, MM = Missing Value Source: NWS Daily Summary

Daily Weather History Graph

Daily Weather History Graph

Search for Another Location

Airport:

Trip Planner

Search our weather history database for the weather conditions in past years. The results will help you decide how hot, cold, wet, or windy it might be!

Date:

Astronomy

Jan. 09, 2013 Rise Set
Actual Time 7:48 AM EST 5:17 PM EST
Civil Twilight 7:18 AM EST 5:47 PM EST
Nautical Twilight 6:44 AM EST 6:21 PM EST
Astronomical Twilight 6:11 AM EST 6:54 PM EST
Moon 5:26 AM EST (1/9) 3:17 PM EST (1/9)
Length of Visible Light 10h 29m
Length of Day
9h 28m
Waning Crescent, 6% of the Moon is Illuminated
Jan 9
Waning Crescent
Jan 11
New
Jan 18
First Quarter
Jan 26
Full
Feb 3
Last Quarter

Hourly Weather History & Observations

Time (EST) Temp. Windchill Dew Point Humidity Pressure Visibility Wind Dir Wind Speed Gust Speed Precip Events Conditions
12:53 AM 30.0 °F - 25.0 °F 82% 30.29 in 7.0 mi Calm Calm - N/A   Clear
1:53 AM 25.0 °F - 21.9 °F 88% 30.28 in 7.0 mi Calm Calm - N/A   Clear
2:53 AM 23.0 °F 18.4 °F 19.9 °F 88% 30.28 in 6.0 mi ESE 3.5 mph - N/A   Clear
3:53 AM 27.0 °F 21.6 °F 23.0 °F 85% 30.27 in 9.0 mi ESE 4.6 mph - N/A   Clear
4:53 AM 28.0 °F 20.8 °F 23.0 °F 81% 30.26 in 10.0 mi SE 6.9 mph - N/A   Overcast
5:53 AM 30.9 °F 27.5 °F 24.1 °F 76% 30.24 in 10.0 mi East 3.5 mph - N/A   Scattered Clouds
6:53 AM 36.0 °F 33.3 °F 27.0 °F 70% 30.26 in 10.0 mi ESE 3.5 mph - N/A   Overcast
7:53 AM 41.0 °F 39.0 °F 30.0 °F 65% 30.27 in 10.0 mi SSE 3.5 mph - 0.00 in   Overcast
8:53 AM 43.0 °F 39.5 °F 32.0 °F 65% 30.30 in 10.0 mi Variable 5.8 mph - N/A   Overcast
9:53 AM 42.1 °F 38.4 °F 36.0 °F 79% 30.29 in 10.0 mi SW 5.8 mph - 0.04 in Rain Light Rain
10:53 AM 42.1 °F 37.7 °F 37.0 °F 82% 30.30 in 10.0 mi Variable 6.9 mph - 0.00 in   Mostly Cloudy
11:53 AM 43.0 °F 38.2 °F 37.0 °F 80% 30.28 in 10.0 mi SW 8.1 mph - N/A   Scattered Clouds
12:06 PM 42.8 °F 40.1 °F 37.4 °F 81% 30.26 in 10.0 mi Variable 4.6 mph - N/A   Mostly Cloudy
12:13 PM 42.8 °F 38.6 °F 37.4 °F 81% 30.26 in 10.0 mi SW 6.9 mph - N/A   Mostly Cloudy
1:53 PM 46.9 °F - 35.1 °F 63% 30.27 in 10.0 mi SW 8.1 mph 17.3 mph N/A   Clear
2:53 PM 46.9 °F - 33.1 °F 59% 30.29 in 10.0 mi WSW 9.2 mph - N/A   Clear
3:53 PM 48.0 °F - 30.0 °F 50% 30.31 in 10.0 mi WSW 10.4 mph 17.3 mph N/A   Clear
4:53 PM 46.0 °F 41.9 °F 28.0 °F 50% 30.34 in 10.0 mi WSW 8.1 mph - N/A   Clear
5:53 PM 45.0 °F 41.8 °F 28.0 °F 52% 30.37 in 10.0 mi WSW 5.8 mph - N/A   Clear
6:53 PM 43.0 °F 38.8 °F 28.0 °F 56% 30.41 in 10.0 mi WSW 6.9 mph - N/A   Clear
7:53 PM 42.1 °F 38.4 °F 28.0 °F 58% 30.43 in 10.0 mi West 5.8 mph - N/A   Clear
8:53 PM 41.0 °F - 27.0 °F 57% 30.45 in 10.0 mi Calm Calm - N/A   Clear
9:53 PM 39.9 °F 37.8 °F 27.0 °F 60% 30.47 in 10.0 mi WSW 3.5 mph - N/A   Clear
10:53 PM 35.1 °F - 27.0 °F 72% 30.49 in 10.0 mi Calm Calm - N/A   Clear
11:53 PM 33.1 °F 30.0 °F 26.1 °F 75% 30.53 in 10.0 mi East 3.5 mph - N/A   Clear